Terminal Aerodrome Forecast
Issued by NWS Twin Cities, MN

Home | Current Version | Previous Version | Graphics & Text | Print | Product List | Glossary On
Versions: 1 2 3 4 5 6 7 8 9 10 11 12 13 14 15
000
FTUS43 KMPX 281353 AAA
TAFEAU
TAF AMD
KEAU 281353Z 2814/2912 17009KT 5SM -RA BKN060
      TEMPO 2814/2816 2SM -RA BR OVC020
     FM281800 16015G22KT P6SM -SHRA SCT020 OVC035
     FM282000 17016G23KT P6SM VCSH BKN035 OVC050
     FM290200 19012KT P6SM VCTS BKN040CB
     FM290500 25006KT P6SM BKN250=

USA.gov is the U.S. government's official web portal to all federal, state and local government web resources and services.